SCP
0 0 -0 -0 -0 -0 -0 0 0 0 -0 0 -0 -0 -0 -0 -0 0 0 0 0 0 0 0 0 0 0 2 3 2 2 2 2 0 0 0 0 0 0 0 0 0 0 0
0 -0 0 0 0 0 0 0 0 0 -0 -0 0 -0 0 0 0 0 -0 0 0 0 0 0 0 0 0 1 1 1 1 1 1 0 0 0 0 0 0 0 0 0 0 0
0 0 0 0 0 0 0 0 0 0 -0 -0 0 0 0 0 0 0 1 0 0 0 0 0 0 0 0 1 0 0 0 0 0 0 0 0 0 0 0 0 0 0 0 0
0 0 0 0 0 0 0 0 0 -0 -0 -0 -0 0 0 0 0 0 0 0 0 0 0 0 0 0 0 0 0 0 0 0 0 0 0 0 0 0 0 0 0 0 0 0
0 0 0 0 0 0 0 0 0 -0 0 0 -0 0 0 -0 0 0 0 0 0 0 0 0 0 0 0 0 0 0 0 0 0 0 0 0 0 0 0 0 0 0 0 0
-0 -0 0 0 0 0 0 0 0 0 -0 -0 -0 0 0 0 0 0 0 0 0 0 0 0 0 0 0 0 0 0 0 0 0 0 0 0 0 0 0 0 0 0 0 0
-0 -0 -0 -0 0 -0 0 0 0 0 0 -0 0 0 0 0 0 0 0 0 0 0 0 0 0 0 0 0 0 0 0 0 0 0 0 0 0 0 0 0 0 0 0 0
0 0 -0 0 0 0 0 0 0 0 0 -0 0 0 0 0 0 0 0 0 0 0 0 0 0 0 0 0 0 0 0 0 0 0 0 0 0 0 0 0 0 0 0 0
0 0 0 0 0 0 0 0 0 0 0 0 0 -0 0 0 0 0 0 0 0 0 0 0 0 0 0 0 0 0 0 0 0 0 0 0 0 0 0 0 0 0 0 0
0 0 0 0 0 0 0 0 0 0 0 0 0 0 0 0 0 0 0 0 0 0 0 0 0 0 0 0 0 0 0 0 0 0 0 0 0 0 0 0 0 0 0 0
0 0 0 0 -0 0 0 0 0 0 0 0 0 0 0 0 0 -0 0 0 0 0 0 0 0 0 0 0 0 0 0 0 0 0 0 0 0 0 0 0 0 0 0 0
0 0 0 0 0 0 0 0 0 0 0 0 0 0 0 0 0 0 0 0 0 0 0 0 0 0 0 0 0 0 0 0 0 0 0 0 0 0 0 0 0 0 0 0
0 0 0 0 0 -0 0 0 0 0 0 0 0 0 0 0 0 0 0 0 0 0 0 0 0 0 0 0 0 0 0 0 0 0 0 0 0 0 0 0 0 0 0 0
0 0 0 0 0 0 0 0 0 0 0 0 0 0 0 0 0 0 0 0 0 0 0 0 0 0 0 0 0 0 0 0 0 0 0 0 0 0 0 0 0 0 0 0
0 0 0 0 0 0 0 0 0 0 0 0 0 0 0 0 0 0 0 0 0 0 0 0 0 0 0 0 0 0 0 0 0 0 0 0 0 0 0 0 0 0 0 0
0 0 0 0 0 0 0 0 0 0 0 0 0 0 0 0 0 0 0 0 0 0 0 0 0 0 0 0 0 0 0 0 0 0 0 0 0 0 0 0 0 0 0 0
0 0 0 0 0 0 0 0 0 0 0 0 0 0 0 0 0 0 0 0 0 0 0 0 0 0 0 0 0 0 0 0 0 0 0 0 0 0 0 0 0 0 0 0
0 0 0 0 0 0 0 0 0 0 0 0 0 0 0 0 0 0 0 0 0 0 0 0 0 0 0 0 0 0 0 0 0 0 0 0 0 0 0 0 0 0 0 0
0 0 0 0 0 0 0 0 0 0 0 0 0 0 0 0 0 0 0 0 0 0 0 0 0 0 0 0 0 0 0 0 0 0 0 0 0 0 0 0 0 0 0 0
0 0 0 0 0 0 0 0 0 0 0 0 0 0 0 0 1 0 0 0 0 0 0 0 0 0 0 0 0 0 0 0 0 0 0 0 0 0 0 0 0 0 0 0
0 0 0 0 0 0 0 0 0 0 0 0 0 0 0 0 0 0 0 0 0 0 0 0 0 0 0 0 0 0 0 0 0 0 0 0 0 0 0 0 0 0 0 0
0 0 0 0 0 0 0 0 0 0 0 0 0 0 0 0 0 0 0 0 0 0 0 0 0 0 0 0 0 0 0 0 0 0 0 0 0 0 0 0 0 0 0 0
0 0 0 0 0 0 0 0 0 0 0 0 0 0 0 0 0 0 0 0 0 0 0 0 0 0 0 0 0 0 0 0 0 0 0 0 0 0 0 0 0 0 0 0
0 0 1 0 0 0 0 1 0 0 0 0 0 0 0 0 0 0 0 0 0 0 0 0 0 0 0 0 0 0 0 0 0 0 0 0 0 0 0 0 0 0 0 0
0 0 0 0 1 0 0 0 0 1 0 0 0 0 0 0 0 0 0 0 0 0 0 0 0 0 0 0 0 0 0 0 0 0 0 0 0 0 0 0 0 0 0 0
0 0 0 1 0 0 0 0 0 0 0 0 0 0 0 0 0 0 0 0 0 0 0 0 0 0 0 0 0 0 0 0 0 0 0 0 0 0 0 0 0 0 0 0
Wind_Speed_500mb
21 4 13 18 13 14 10 11 19 28 33 15 17 26 21 56 47 30 53 51 77 72 70 69 60 55 52 41 50 53 56 52 46 41 47 40 43 50 42 37 31 42 46 46
4 15 20 16 15 12 14 16 34 22 11 7 9 20 9 15 28 61 55 48 70 82 78 74 63 59 40 44 41 38 35 56 49 49 54 54 51 47 42 37 36 35 34 39
17 18 17 22 19 15 20 12 18 16 9 5 5 13 10 16 48 46 42 63 75 92 86 80 73 57 38 53 35 34 34 41 49 49 50 61 55 45 36 30 25 30 34 36
15 29 25 17 23 16 16 16 18 9 11 7 9 8 13 12 17 23 43 63 71 80 76 74 68 57 42 28 31 31 31 28 30 44 48 49 38 29 25 23 25 31 40 39
16 6 14 16 29 18 22 16 11 4 5 4 4 9 15 25 9 17 20 35 62 64 64 60 54 49 43 27 18 19 25 26 18 15 12 12 13 14 17 24 32 34 36 32
16 26 11 18 31 18 19 5 15 12 7 4 9 12 11 10 20 14 27 38 56 65 58 55 54 49 39 25 22 24 22 20 16 13 15 12 12 16 25 31 29 28 29 23
13 22 11 20 17 9 9 13 6 9 9 13 8 6 16 6 37 40 41 47 47 64 65 61 54 41 30 24 26 26 23 22 19 14 11 15 21 25 27 24 22 21 22 24
14 23 23 17 16 21 15 19 12 12 7 14 9 6 12 18 46 74 66 67 68 67 60 51 43 37 33 31 30 26 22 19 19 20 21 23 21 18 18 19 20 21 22 24
11 13 13 12 8 16 9 7 17 12 2 4 7 2 9 14 28 49 52 55 61 65 57 49 43 34 32 34 30 29 32 32 28 25 19 14 10 11 16 16 16 20 20 18
16 20 26 32 8 12 11 11 7 6 8 10 10 6 10 14 29 31 39 49 62 61 58 52 45 39 34 35 37 34 29 25 23 16 8 4 12 14 14 15 17 19 19 22
29 13 32 10 11 19 10 1 9 11 11 13 7 11 15 33 41 46 56 69 72 72 67 56 45 33 32 32 28 25 24 22 15 8 4 8 13 13 13 14 19 23 25 23
18 14 23 38 26 15 14 16 16 11 12 6 8 13 6 30 36 55 51 57 72 79 73 60 47 36 33 32 31 25 24 17 10 4 6 11 11 10 15 18 21 26 25 23
13 5 13 18 16 4 12 14 16 7 6 16 12 13 6 20 9 30 65 69 83 79 67 59 55 52 39 36 28 28 21 10 7 8 14 13 10 17 15 17 22 22 29 29
20 13 19 32 30 11 10 10 17 16 9 11 16 14 10 12 25 56 64 84 92 78 64 62 59 41 39 33 30 25 18 13 11 14 15 13 13 15 18 19 24 30 30 34
2 10 10 37 38 31 25 16 12 10 14 16 17 19 20 24 32 70 88 84 89 73 64 57 55 42 39 37 32 23 16 12 13 16 13 10 11 18 23 23 26 29 29 30
3 9 15 26 29 36 27 23 19 10 9 13 10 15 9 25 44 52 75 77 79 74 60 58 54 44 41 33 28 19 14 13 14 12 6 7 14 16 19 21 26 27 28 37
5 2 7 13 24 15 14 38 20 10 12 14 14 15 19 16 38 61 66 74 78 64 62 67 59 44 36 32 22 15 14 14 12 6 3 6 10 12 20 28 31 28 31 28
15 9 6 9 12 11 25 16 19 19 14 11 11 25 33 48 54 62 88 88 66 65 69 70 56 44 37 31 21 16 14 11 6 2 2 7 15 22 24 25 25 27 28 20
16 9 4 7 10 14 20 4 14 15 18 14 24 28 43 50 45 26 68 64 76 78 74 69 51 44 39 29 21 17 14 10 8 5 6 15 24 16 23 22 24 30 18 27
18 12 13 3 8 22 6 9 5 11 12 5 36 46 53 54 11 8 54 72 76 71 70 57 52 45 39 31 23 19 17 12 6 6 17 18 10 18 26 21 24 20 24 27
7 5 25 18 13 15 9 6 18 16 21 17 62 63 43 12 20 54 67 76 69 69 61 55 50 42 33 25 23 20 12 7 6 12 5 6 15 17 20 21 24 20 25 30
17 13 10 6 10 25 9 5 21 15 19 48 53 53 52 63 82 74 73 67 66 65 58 51 45 35 26 25 21 16 10 6 1 1 6 13 18 20 20 19 22 24 30 34
15 22 15 21 15 9 7 8 5 45 53 55 65 59 78 89 84 78 71 67 63 57 51 41 33 33 30 25 19 15 9 6 1 5 11 6 12 21 18 19 23 28 30 32
10 3 11 9 12 13 34 20 32 31 41 68 78 85 90 89 83 79 68 57 52 45 40 37 34 30 29 24 20 11 8 6 6 8 8 13 20 10 10 17 25 30 38 37
8 14 6 10 9 5 10 34 57 54 38 63 68 71 84 82 70 68 69 59 49 45 40 31 31 28 27 27 19 11 2 9 7 8 14 16 16 20 17 14 26 41 39 22
4 11 6 6 5 4 11 17 59 69 54 66 83 76 83 77 78 71 64 54 52 47 38 33 28 28 28 22 15 6 4 8 7 14 15 21 27 14 12 24 29 32 21 19
Wind_Direction_500mb
258 103 231 240 221 213 244 257 277 288 283 272 232 218 228 196 202 169 186 194 189 178 177 174 174 171 184 205 198 208 205 197 190 215 249 247 242 244 239 242 269 291 299 294
323 240 231 232 244 251 264 270 279 279 256 5 1 267 264 125 186 166 158 158 169 171 175 181 179 182 194 201 195 195 195 205 207 232 253 242 244 240 244 264 280 287 287 302
194 236 209 235 262 255 259 222 258 245 326 334 55 336 310 52 109 124 141 162 173 176 184 192 192 193 200 198 205 188 194 217 235 251 227 236 245 251 256 274 281 294 297 303
225 243 246 247 249 236 267 229 254 334 40 287 79 270 310 91 84 121 153 167 163 171 180 186 187 178 176 193 226 219 222 232 228 221 225 234 240 246 265 261 271 283 284 287
236 220 225 243 246 252 250 266 252 317 96 34 53 99 266 131 127 159 165 172 171 168 168 170 176 177 182 196 199 214 231 241 212 206 226 231 226 235 251 271 279 280 280 286
227 262 217 238 253 231 260 214 31 37 54 340 250 142 277 188 174 171 170 169 160 158 157 160 162 170 182 189 202 213 209 201 196 194 200 211 237 263 275 274 277 274 272 278
295 278 275 268 285 291 177 64 345 339 348 246 8 13 237 227 169 171 165 163 165 160 156 158 156 160 164 175 181 177 169 169 168 183 204 236 251 257 257 261 268 272 273 281
210 273 261 241 194 231 203 155 157 213 224 271 334 265 281 305 174 158 157 163 165 164 164 163 153 158 161 166 169 168 161 169 180 200 213 227 236 248 267 283 292 298 304 310
186 253 263 252 251 153 225 150 188 150 46 359 234 141 34 64 104 133 144 155 163 167 163 159 153 163 163 165 169 175 180 187 189 194 199 214 230 259 275 292 305 315 323 328
227 260 260 268 343 285 193 176 92 11 209 260 274 215 200 169 148 152 160 165 166 166 162 164 164 170 167 170 170 176 179 184 178 183 185 260 299 304 312 318 328 337 346 350
210 165 255 310 181 239 312 280 63 128 142 194 262 262 215 181 175 172 174 170 164 165 165 163 167 175 179 177 176 180 184 187 180 182 248 300 295 304 315 329 343 352 348 353
222 198 234 242 233 187 184 233 181 150 227 204 190 267 233 177 179 175 161 148 154 165 162 163 171 177 187 186 185 193 186 188 195 233 307 311 306 320 334 335 347 351 353 1
325 291 251 288 299 137 188 199 203 122 87 199 196 261 82 157 144 143 139 146 158 161 166 176 178 176 182 190 196 200 203 212 240 299 310 309 325 344 340 347 2 358 2 3
307 217 202 232 222 172 203 222 206 168 139 193 222 230 236 164 149 145 153 157 163 167 175 180 177 178 182 192 203 212 218 227 271 298 288 313 337 352 355 1 1 1 355 353
92 261 263 236 224 230 225 218 184 222 208 166 221 200 218 187 166 163 161 160 162 171 180 184 183 181 184 192 212 218 218 259 283 288 296 325 349 4 359 353 350 350 344 337
227 269 345 277 214 220 227 213 214 198 189 243 223 238 224 148 141 151 159 160 165 180 186 186 188 182 192 208 218 218 259 284 277 288 303 338 350 350 340 335 332 328 329 329
252 246 30 280 307 191 244 233 212 209 197 177 201 205 147 140 161 163 164 168 177 187 192 191 187 190 202 209 217 248 268 270 287 308 15 344 322 315 318 323 325 326 336 344
241 144 160 253 317 239 244 184 184 205 214 131 99 149 163 163 171 171 175 178 190 185 191 189 188 192 198 205 219 235 249 262 263 152 266 302 293 301 313 329 330 337 349 352
198 151 245 194 202 283 294 268 158 165 253 194 141 139 131 137 150 186 192 200 186 188 189 185 190 194 198 205 208 220 227 208 194 262 273 285 296 309 332 326 339 340 346 343
186 183 194 195 226 235 296 219 113 77 249 88 152 156 154 149 131 222 174 185 180 182 182 182 185 189 191 188 202 201 192 200 221 266 285 295 316 328 330 324 347 336 338 333
182 169 209 226 231 283 279 192 132 165 242 167 164 163 152 119 149 150 162 168 170 170 172 176 178 181 184 192 186 192 189 181 254 287 311 338 332 336 336 336 341 330 326 319
202 175 192 124 192 251 197 290 166 211 157 150 156 158 136 137 143 149 153 152 161 161 163 169 171 178 179 175 183 170 171 205 277 44 340 325 327 324 329 330 336 330 326 319
241 208 212 185 205 215 169 153 251 159 156 147 146 150 143 137 141 146 142 154 160 158 162 167 177 170 165 166 165 153 133 89 140 338 334 336 337 334 328 321 329 338 335 338
267 9 198 121 211 197 194 190 164 178 169 161 155 151 151 142 149 147 145 161 159 159 165 167 166 167 160 159 155 153 96 4 342 334 324 340 336 351 320 338 342 339 339 336
252 326 260 251 45 106 191 206 194 177 170 163 166 166 156 153 163 161 159 164 164 162 162 163 158 155 151 150 153 129 42 336 345 352 344 348 5 327 335 2 350 336 336 334
39 270 226 186 346 213 283 201 174 172 174 176 159 152 160 166 160 161 161 164 164 165 159 151 139 139 141 135 124 124 355 345 3 358 6 8 2 37 19 345 337 342 339 333
Wind_Speed_850mb
21 4 13 18 13 14 10 11 19 28 33 15 17 26 21 56 47 30 53 51 77 72 70 69 60 55 52 41 50 53 56 52 46 41 47 40 43 50 42 37 31 42 46 46
4 15 20 16 15 12 14 16 34 22 11 7 9 20 9 15 28 61 55 48 70 82 78 74 63 59 40 44 41 38 35 56 49 49 54 54 51 47 42 37 36 35 34 39
17 18 17 22 19 15 20 12 18 16 9 5 5 13 10 16 48 46 42 63 75 92 86 80 73 57 38 53 35 34 34 41 49 49 50 61 55 45 36 30 25 30 34 36
15 29 25 17 23 16 16 16 18 9 11 7 9 8 13 12 17 23 43 63 71 80 76 74 68 57 42 28 31 31 31 28 30 44 48 49 38 29 25 23 25 31 40 39
16 6 14 16 29 18 22 16 11 4 5 4 4 9 15 25 9 17 20 35 62 64 64 60 54 49 43 27 18 19 25 26 18 15 12 12 13 14 17 24 32 34 36 32
16 26 11 18 31 18 19 5 15 12 7 4 9 12 11 10 20 14 27 38 56 65 58 55 54 49 39 25 22 24 22 20 16 13 15 12 12 16 25 31 29 28 29 23
13 22 11 20 17 9 9 13 6 9 9 13 8 6 16 6 37 40 41 47 47 64 65 61 54 41 30 24 26 26 23 22 19 14 11 15 21 25 27 24 22 21 22 24
14 23 23 17 16 21 15 19 12 12 7 14 9 6 12 18 46 74 66 67 68 67 60 51 43 37 33 31 30 26 22 19 19 20 21 23 21 18 18 19 20 21 22 24
11 13 13 12 8 16 9 7 17 12 2 4 7 2 9 14 28 49 52 55 61 65 57 49 43 34 32 34 30 29 32 32 28 25 19 14 10 11 16 16 16 20 20 18
16 20 26 32 8 12 11 11 7 6 8 10 10 6 10 14 29 31 39 49 62 61 58 52 45 39 34 35 37 34 29 25 23 16 8 4 12 14 14 15 17 19 19 22
29 13 32 10 11 19 10 1 9 11 11 13 7 11 15 33 41 46 56 69 72 72 67 56 45 33 32 32 28 25 24 22 15 8 4 8 13 13 13 14 19 23 25 23
18 14 23 38 26 15 14 16 16 11 12 6 8 13 6 30 36 55 51 57 72 79 73 60 47 36 33 32 31 25 24 17 10 4 6 11 11 10 15 18 21 26 25 23
13 5 13 18 16 4 12 14 16 7 6 16 12 13 6 20 9 30 65 69 83 79 67 59 55 52 39 36 28 28 21 10 7 8 14 13 10 17 15 17 22 22 29 29
20 13 19 32 30 11 10 10 17 16 9 11 16 14 10 12 25 56 64 84 92 78 64 62 59 41 39 33 30 25 18 13 11 14 15 13 13 15 18 19 24 30 30 34
2 10 10 37 38 31 25 16 12 10 14 16 17 19 20 24 32 70 88 84 89 73 64 57 55 42 39 37 32 23 16 12 13 16 13 10 11 18 23 23 26 29 29 30
3 9 15 26 29 36 27 23 19 10 9 13 10 15 9 25 44 52 75 77 79 74 60 58 54 44 41 33 28 19 14 13 14 12 6 7 14 16 19 21 26 27 28 37
5 2 7 13 24 15 14 38 20 10 12 14 14 15 19 16 38 61 66 74 78 64 62 67 59 44 36 32 22 15 14 14 12 6 3 6 10 12 20 28 31 28 31 28
15 9 6 9 12 11 25 16 19 19 14 11 11 25 33 48 54 62 88 88 66 65 69 70 56 44 37 31 21 16 14 11 6 2 2 7 15 22 24 25 25 27 28 20
16 9 4 7 10 14 20 4 14 15 18 14 24 28 43 50 45 26 68 64 76 78 74 69 51 44 39 29 21 17 14 10 8 5 6 15 24 16 23 22 24 30 18 27
18 12 13 3 8 22 6 9 5 11 12 5 36 46 53 54 11 8 54 72 76 71 70 57 52 45 39 31 23 19 17 12 6 6 17 18 10 18 26 21 24 20 24 27
7 5 25 18 13 15 9 6 18 16 21 17 62 63 43 12 20 54 67 76 69 69 61 55 50 42 33 25 23 20 12 7 6 12 5 6 15 17 20 21 24 20 25 30
17 13 10 6 10 25 9 5 21 15 19 48 53 53 52 63 82 74 73 67 66 65 58 51 45 35 26 25 21 16 10 6 1 1 6 13 18 20 20 19 22 24 30 34
15 22 15 21 15 9 7 8 5 45 53 55 65 59 78 89 84 78 71 67 63 57 51 41 33 33 30 25 19 15 9 6 1 5 11 6 12 21 18 19 23 28 30 32
10 3 11 9 12 13 34 20 32 31 41 68 78 85 90 89 83 79 68 57 52 45 40 37 34 30 29 24 20 11 8 6 6 8 8 13 20 10 10 17 25 30 38 37
8 14 6 10 9 5 10 34 57 54 38 63 68 71 84 82 70 68 69 59 49 45 40 31 31 28 27 27 19 11 2 9 7 8 14 16 16 20 17 14 26 41 39 22
4 11 6 6 5 4 11 17 59 69 54 66 83 76 83 77 78 71 64 54 52 47 38 33 28 28 28 22 15 6 4 8 7 14 15 21 27 14 12 24 29 32 21 19
Wind_Direction_850mb
258 103 231 240 221 213 244 257 277 288 283 272 232 218 228 196 202 169 186 194 189 178 177 174 174 171 184 205 198 208 205 197 190 215 249 247 242 244 239 242 269 291 299 294
323 240 231 232 244 251 264 270 279 279 256 5 1 267 264 125 186 166 158 158 169 171 175 181 179 182 194 201 195 195 195 205 207 232 253 242 244 240 244 264 280 287 287 302
194 236 209 235 262 255 259 222 258 245 326 334 55 336 310 52 109 124 141 162 173 176 184 192 192 193 200 198 205 188 194 217 235 251 227 236 245 251 256 274 281 294 297 303
225 243 246 247 249 236 267 229 254 334 40 287 79 270 310 91 84 121 153 167 163 171 180 186 187 178 176 193 226 219 222 232 228 221 225 234 240 246 265 261 271 283 284 287
236 220 225 243 246 252 250 266 252 317 96 34 53 99 266 131 127 159 165 172 171 168 168 170 176 177 182 196 199 214 231 241 212 206 226 231 226 235 251 271 279 280 280 286
227 262 217 238 253 231 260 214 31 37 54 340 250 142 277 188 174 171 170 169 160 158 157 160 162 170 182 189 202 213 209 201 196 194 200 211 237 263 275 274 277 274 272 278
295 278 275 268 285 291 177 64 345 339 348 246 8 13 237 227 169 171 165 163 165 160 156 158 156 160 164 175 181 177 169 169 168 183 204 236 251 257 257 261 268 272 273 281
210 273 261 241 194 231 203 155 157 213 224 271 334 265 281 305 174 158 157 163 165 164 164 163 153 158 161 166 169 168 161 169 180 200 213 227 236 248 267 283 292 298 304 310
186 253 263 252 251 153 225 150 188 150 46 359 234 141 34 64 104 133 144 155 163 167 163 159 153 163 163 165 169 175 180 187 189 194 199 214 230 259 275 292 305 315 323 328
227 260 260 268 343 285 193 176 92 11 209 260 274 215 200 169 148 152 160 165 166 166 162 164 164 170 167 170 170 176 179 184 178 183 185 260 299 304 312 318 328 337 346 350
210 165 255 310 181 239 312 280 63 128 142 194 262 262 215 181 175 172 174 170 164 165 165 163 167 175 179 177 176 180 184 187 180 182 248 300 295 304 315 329 343 352 348 353
222 198 234 242 233 187 184 233 181 150 227 204 190 267 233 177 179 175 161 148 154 165 162 163 171 177 187 186 185 193 186 188 195 233 307 311 306 320 334 335 347 351 353 1
325 291 251 288 299 137 188 199 203 122 87 199 196 261 82 157 144 143 139 146 158 161 166 176 178 176 182 190 196 200 203 212 240 299 310 309 325 344 340 347 2 358 2 3
307 217 202 232 222 172 203 222 206 168 139 193 222 230 236 164 149 145 153 157 163 167 175 180 177 178 182 192 203 212 218 227 271 298 288 313 337 352 355 1 1 1 355 353
92 261 263 236 224 230 225 218 184 222 208 166 221 200 218 187 166 163 161 160 162 171 180 184 183 181 184 192 212 218 218 259 283 288 296 325 349 4 359 353 350 350 344 337
227 269 345 277 214 220 227 213 214 198 189 243 223 238 224 148 141 151 159 160 165 180 186 186 188 182 192 208 218 218 259 284 277 288 303 338 350 350 340 335 332 328 329 329
252 246 30 280 307 191 244 233 212 209 197 177 201 205 147 140 161 163 164 168 177 187 192 191 187 190 202 209 217 248 268 270 287 308 15 344 322 315 318 323 325 326 336 344
241 144 160 253 317 239 244 184 184 205 214 131 99 149 163 163 171 171 175 178 190 185 191 189 188 192 198 205 219 235 249 262 263 152 266 302 293 301 313 329 330 337 349 352
198 151 245 194 202 283 294 268 158 165 253 194 141 139 131 137 150 186 192 200 186 188 189 185 190 194 198 205 208 220 227 208 194 262 273 285 296 309 332 326 339 340 346 343
186 183 194 195 226 235 296 219 113 77 249 88 152 156 154 149 131 222 174 185 180 182 182 182 185 189 191 188 202 201 192 200 221 266 285 295 316 328 330 324 347 336 338 333
182 169 209 226 231 283 279 192 132 165 242 167 164 163 152 119 149 150 162 168 170 170 172 176 178 181 184 192 186 192 189 181 254 287 311 338 332 336 336 336 341 330 326 319
202 175 192 124 192 251 197 290 166 211 157 150 156 158 136 137 143 149 153 152 161 161 163 169 171 178 179 175 183 170 171 205 277 44 340 325 327 324 329 330 336 330 326 319
241 208 212 185 205 215 169 153 251 159 156 147 146 150 143 137 141 146 142 154 160 158 162 167 177 170 165 166 165 153 133 89 140 338 334 336 337 334 328 321 329 338 335 338
267 9 198 121 211 197 194 190 164 178 169 161 155 151 151 142 149 147 145 161 159 159 165 167 166 167 160 159 155 153 96 4 342 334 324 340 336 351 320 338 342 339 339 336
252 326 260 251 45 106 191 206 194 177 170 163 166 166 156 153 163 161 159 164 164 162 162 163 158 155 151 150 153 129 42 336 345 352 344 348 5 327 335 2 350 336 336 334
39 270 226 186 346 213 283 201 174 172 174 176 159 152 160 166 160 161 161 164 164 165 159 151 139 139 141 135 124 124 355 345 3 358 6 8 2 37 19 345 337 342 339 333